Location: *
(51.8167°N, 12.5000°E)
Time: 22:17:01
(UTC+00:00)

Cosmos 1943 - Pass Details

Date: 16 September 2019
Orbit: 832 x 851 km, 71.0° (Epoch: 14 October)

Event Time Altitude Azimuth Distance (km) Brightness Sun altitude
Rises 20:00:27 0° 330° (NNW) 3,429 7.5 -23.2°
Reaches altitude 10° 20:03:12 10° 340° (NNW) 2,490 6.4 -23.5°
Maximum altitude 20:08:17 32° 43° (NE) 1,427 4.3 -24.1°
Enters shadow 20:09:18 30° 63° (ENE) 1,483 4.2 -24.2°
